When you browse on this site, cookies collect data to enhance your experience and personalize the content and advertising you see.
Visit our Privacy Policy to learn more. By continuing to use the site, you agree to this use of cookies and data.

Hourly Weather Zacualtipan

Today, 14 July, Tuesday

Time Temperature Precipitation Wind Pressure Humidity
00:00 +15°C° 0 mm 1 mps 617 mmHg 92%
01:00 +15°C° 0 mm 1 mps 617 mmHg 90%
02:00 +15°C° 0 mm 1 mps 616 mmHg 88%
03:00 +15°C° 0 mm 1 mps 616 mmHg 87%
04:00 +15°C° 0 mm 1 mps 616 mmHg 85%
05:00 +15°C° 0 mm 1 mps 617 mmHg 86%
06:00 +18°C° 0 mm 1 mps 618 mmHg 78%
07:00 +20°C° 0 mm 1 mps 619 mmHg 70%
08:00 +23°C° 0 mm 1 mps 620 mmHg 62%
09:00 +24°C° 0 mm 1 mps 620 mmHg 60%
10:00 +25°C° 0 mm 2 mps 620 mmHg 58%
11:00 +26°C° 0 mm 2 mps 620 mmHg 57%
12:00 +25°C° 0.6 mm 2 mps 620 mmHg 63%
13:00 +24°C° 0.6 mm 2 mps 619 mmHg 70%
14:00 +23°C° 0.6 mm 2 mps 618 mmHg 77%
15:00 +23°C° 0.5 mm 2 mps 618 mmHg 79%
16:00 +21°C° 0.5 mm 2 mps 618 mmHg 81%
17:00 +22°C° 0.5 mm 1 mps 617 mmHg 83%
18:00 +20°C° 0.2 mm 1 mps 618 mmHg 88%
19:00 +19°C° 0.2 mm 1 mps 618 mmHg 92%
20:00 +18°C° 0.2 mm 1 mps 618 mmHg 97%
21:00 +16°C° 0 mm 1 mps 618 mmHg 97%
22:00 +16°C° 0 mm 1 mps 618 mmHg 96%
23:00 +16°C° 0 mm 1 mps 618 mmHg 96%

Tomorrow, 15 July, Wednesday

Time Temperature Precipitation Wind Pressure Humidity
00:00 +16°C° 0 mm 1 mps 617 mmHg 95%
01:00 +15°C° 0 mm 1 mps 617 mmHg 95%
02:00 +15°C° 0 mm 1 mps 616 mmHg 94%
03:00 +15°C° 0 mm 1 mps 616 mmHg 94%
04:00 +14°C° 0 mm 1 mps 616 mmHg 94%
05:00 +14°C° 0 mm 1 mps 616 mmHg 94%
06:00 +16°C° 0 mm 1 mps 617 mmHg 88%
07:00 +19°C° 0 mm 1 mps 618 mmHg 82%
08:00 +21°C° 0 mm 1 mps 619 mmHg 76%
09:00 +22°C° 0.1 mm 1 mps 619 mmHg 74%
10:00 +23°C° 0.1 mm 2 mps 619 mmHg 72%
11:00 +22°C° 0.1 mm 3 mps 620 mmHg 71%
12:00 +23°C° 0.8 mm 2 mps 619 mmHg 75%
13:00 +21°C° 0.8 mm 2 mps 618 mmHg 80%
14:00 +20°C° 0.8 mm 2 mps 617 mmHg 85%
15:00 +20°C° 0.5 mm 2 mps 617 mmHg 86%
16:00 +20°C° 0.5 mm 2 mps 617 mmHg 87%
17:00 +20°C° 0.5 mm 2 mps 617 mmHg 88%
18:00 +20°C° 0.2 mm 1 mps 617 mmHg 91%
19:00 +19°C° 0.2 mm 1 mps 618 mmHg 94%
20:00 +18°C° 0.2 mm 1 mps 618 mmHg 97%
21:00 +16°C° 0.1 mm 0 mps 618 mmHg 97%
22:00 +16°C° 0.1 mm 0 mps 618 mmHg 96%
23:00 +16°C° 0.1 mm 0 mps 618 mmHg 95%

Day after tomorrow, 16 July, Thursday

Time Temperature Precipitation Wind Pressure Humidity
00:00 +15°C° 0 mm 0 mps 618 mmHg 96%
01:00 +15°C° 0 mm 0 mps 618 mmHg 96%
02:00 +15°C° 0 mm 0 mps 617 mmHg 96%
03:00 +14°C° 0 mm 0 mps 617 mmHg 96%
04:00 +14°C° 0 mm 0 mps 617 mmHg 96%
05:00 +14°C° 0 mm 0 mps 617 mmHg 96%
06:00 +15°C° 0 mm 0 mps 618 mmHg 91%
07:00 +17°C° 0 mm 0 mps 619 mmHg 86%
08:00 +20°C° 0 mm 1 mps 620 mmHg 82%
09:00 +21°C° 0 mm 1 mps 620 mmHg 77%
10:00 +21°C° 0 mm 2 mps 620 mmHg 73%
11:00 +22°C° 0 mm 3 mps 620 mmHg 68%
12:00 +22°C° 0.2 mm 3 mps 620 mmHg 69%
13:00 +22°C° 0.2 mm 3 mps 619 mmHg 70%
14:00 +22°C° 0.2 mm 3 mps 619 mmHg 72%
15:00 +21°C° 0.5 mm 2 mps 618 mmHg 75%
16:00 +20°C° 0.5 mm 2 mps 618 mmHg 79%
17:00 +20°C° 0.5 mm 2 mps 618 mmHg 83%
18:00 +18°C° 0.1 mm 2 mps 618 mmHg 88%
19:00 +18°C° 0.1 mm 1 mps 618 mmHg 92%
20:00 +15°C° 0.1 mm 0 mps 618 mmHg 97%
21:00 +15°C° 0 mm 0 mps 618 mmHg 97%
22:00 +15°C° 0 mm 0 mps 618 mmHg 96%
23:00 +14°C° 0 mm 0 mps 619 mmHg 96%

17 July, Friday

Time Temperature Precipitation Wind Pressure Humidity
00:00 +14°C° 0 mm 0 mps 618 mmHg 96%
01:00 +14°C° 0 mm 0 mps 618 mmHg 95%
02:00 +14°C° 0 mm 0 mps 618 mmHg 95%
03:00 +14°C° 0 mm 0 mps 618 mmHg 94%
04:00 +14°C° 0 mm 0 mps 618 mmHg 94%
05:00 +14°C° 0 mm 0 mps 618 mmHg 93%
06:00 +15°C° 0 mm 0 mps 619 mmHg 87%
07:00 +17°C° 0 mm 0 mps 619 mmHg 80%
08:00 +18°C° 0 mm 0 mps 620 mmHg 74%
09:00 +22°C° 0 mm 1 mps 620 mmHg 68%
10:00 +23°C° 0 mm 2 mps 621 mmHg 62%
11:00 +24°C° 0 mm 2 mps 621 mmHg 56%
12:00 +23°C° 0.7 mm 2 mps 620 mmHg 63%
13:00 +22°C° 0.7 mm 3 mps 619 mmHg 70%
14:00 +21°C° 0.7 mm 3 mps 619 mmHg 77%
15:00 +20°C° 1 mm 2 mps 618 mmHg 80%
16:00 +19°C° 1 mm 2 mps 618 mmHg 83%
17:00 +18°C° 1 mm 2 mps 617 mmHg 85%
18:00 +18°C° 0.3 mm 1 mps 617 mmHg 89%
19:00 +16°C° 0.3 mm 1 mps 618 mmHg 92%
20:00 +16°C° 0.3 mm 1 mps 618 mmHg 95%
21:00 +15°C° 0.1 mm 1 mps 618 mmHg 94%
22:00 +15°C° 0.1 mm 1 mps 618 mmHg 93%
23:00 +14°C° 0.1 mm 0 mps 618 mmHg 92%

18 July, Saturday

Time Temperature Precipitation Wind Pressure Humidity
00:00 +14°C° 0.1 mm 0 mps 617 mmHg 91%
01:00 +15°C° 0.1 mm 1 mps 617 mmHg 89%
02:00 +15°C° 0.1 mm 1 mps 617 mmHg 88%
03:00 +15°C° 0 mm 1 mps 617 mmHg 87%
04:00 +14°C° 0 mm 1 mps 617 mmHg 86%
05:00 +13°C° 0 mm 0 mps 617 mmHg 86%
06:00 +16°C° 0 mm 1 mps 618 mmHg 80%
07:00 +19°C° 0 mm 1 mps 619 mmHg 74%
08:00 +20°C° 0 mm 1 mps 620 mmHg 69%
09:00 +22°C° 0 mm 1 mps 620 mmHg 64%
10:00 +23°C° 0 mm 2 mps 620 mmHg 59%
11:00 +24°C° 0 mm 3 mps 620 mmHg 54%
12:00 +24°C° 0 mm 3 mps 620 mmHg 55%
13:00 +23°C° 0 mm 4 mps 619 mmHg 56%
14:00 +23°C° 0 mm 4 mps 619 mmHg 57%
15:00 +22°C° 0.2 mm 4 mps 618 mmHg 63%
16:00 +21°C° 0.2 mm 3 mps 618 mmHg 69%
17:00 +20°C° 0.2 mm 3 mps 618 mmHg 75%
18:00 +18°C° 0.1 mm 2 mps 618 mmHg 82%
19:00 +18°C° 0.1 mm 1 mps 618 mmHg 89%
20:00 +15°C° 0.1 mm 1 mps 618 mmHg 96%
21:00 +15°C° 0 mm 1 mps 618 mmHg 95%
22:00 +15°C° 0 mm 1 mps 618 mmHg 95%
23:00 +14°C° 0 mm 1 mps 618 mmHg 94%

19 July, Sunday

Time Temperature Precipitation Wind Pressure Humidity
00:00 +14°C° 0 mm 1 mps 617 mmHg 93%
01:00 +14°C° 0 mm 1 mps 617 mmHg 93%
02:00 +13°C° 0 mm 1 mps 616 mmHg 93%
03:00 +13°C° 0 mm 1 mps 616 mmHg 92%
04:00 +13°C° 0 mm 1 mps 616 mmHg 92%
05:00 +13°C° 0 mm 1 mps 616 mmHg 91%
06:00 +15°C° 0 mm 1 mps 618 mmHg 81%
07:00 +19°C° 0 mm 1 mps 619 mmHg 71%
08:00 +19°C° 0 mm 0 mps 620 mmHg 61%
09:00 +22°C° 0 mm 1 mps 620 mmHg 59%
10:00 +23°C° 0 mm 2 mps 620 mmHg 57%
11:00 +24°C° 0 mm 3 mps 620 mmHg 55%
12:00 +24°C° 0.1 mm 3 mps 620 mmHg 58%
13:00 +24°C° 0.1 mm 3 mps 619 mmHg 61%
14:00 +22°C° 0.1 mm 3 mps 618 mmHg 64%
15:00 +21°C° 0.1 mm 3 mps 618 mmHg 67%
16:00 +21°C° 0.1 mm 2 mps 618 mmHg 70%
17:00 +20°C° 0.1 mm 2 mps 617 mmHg 73%
18:00 +19°C° 0.1 mm 1 mps 617 mmHg 80%
19:00 +18°C° 0.1 mm 1 mps 617 mmHg 86%
20:00 +15°C° 0.1 mm 1 mps 617 mmHg 93%
21:00 +15°C° 0 mm 1 mps 617 mmHg 92%
22:00 +15°C° 0 mm 1 mps 617 mmHg 92%
23:00 +15°C° 0 mm 1 mps 617 mmHg 91%
Show more